Overview Statistics Trail Chart Weather Telemetry Raw packets
 

This is the latest recevied weather packets stored in our database for station/object W6MAF. If no packets are shown the sender has not sent any weather packets the latest 10 day(s).

<< 23 24 25 26 27 28 29 >>
Time Temp. Humidity Pressure Rain* Wind** Luminosity Snow
1788511919 14.44° C 45% - 0 mm 4.47 m/s, 217° - -
1788511621 14.44° C 45% - 0 mm 5.36 m/s, 190° - -
1788511323 14.44° C 45% - 0 mm 4.92 m/s, 214° - -
1788511026 14.44° C 45% - 0 mm 6.26 m/s, 221° - -
1788510728 14.44° C 44% - 0 mm 6.26 m/s, 221° - -
1788510473 14.44° C 44% - 0 mm 5.81 m/s, 228° - -
1788510427 14.44° C 44% - 0 mm 5.81 m/s, 228° - -
1788510129 14.44° C 44% - 0 mm 5.81 m/s, 224° - -
1788509832 15° C 44% - 0 mm 6.26 m/s, 197° - -
1788509534 15° C 44% - 0 mm 6.71 m/s, 211° - -
1788509236 14.44° C 44% - 0 mm 6.71 m/s, 222° - -
1788508938 15° C 44% - 0 mm 6.26 m/s, 210° - -
1788508638 15° C 44% - 0 mm 5.81 m/s, 212° - -
1788508340 15° C 44% - 0 mm 6.26 m/s, 208° - -
1788508042 15° C 43% - 0 mm 4.47 m/s, 232° - -
1788507744 15° C 43% - 0 mm 6.26 m/s, 222° - -
1788507447 15.56° C 42% - 0 mm 5.36 m/s, 232° - -
1788507149 15.56° C 41% - 0 mm 5.36 m/s, 224° - -
1788506849 15.56° C 40% - 0 mm 6.71 m/s, 193° - -
1788506551 15.56° C 40% - 0 mm 6.26 m/s, 211° - -
1788506253 15.56° C 40% - 0 mm 7.6 m/s, 217° - -
1788505955 15.56° C 39% - 0 mm 6.71 m/s, 225° - -
1788505657 15° C 39% - 0 mm 7.6 m/s, 226° - -
1788505359 15° C 39% - 0 mm 8.05 m/s, 218° - -
1788505058 15° C 40% - 0 mm 5.36 m/s, 219° - -

* Rain latest hour (hover to see other rain measurements)
** Current wind speed in m/s (hover to see current wind gust speed)